Regional Weather Roundup
Issued by NWS Cleveland, OH

Home | Current Version | Previous Version | Graphics & Text | Print | Product List | Glossary On
Versions: 1 2 3 4 5 6 7 8 9 10 11 12 13 14 15 16 17 18 19 20 21 22 23 24 25 26 27 28 29 30 31 32 33 34 35 36 37 38 39 40 41 42 43 44 45 46 47 48 49 50
000
ASUS41 KCLE 051510
RWRCLE
OHIO REGIONAL WEATHER ROUNDUP
NATIONAL WEATHER SERVICE CLEVELAND, OH
1100 AM EDT SUN JUL 05 2015

NOTE: "FAIR" INDICATES FEW OR NO CLOUDS BELOW 12,000 FEET WITH NO
SIGNIFICANT WEATHER AND/OR OBSTRUCTIONS TO VISIBILITY.

OHZ001>008-015>018-024>027-034-035-043-044-051600-
   NORTHWEST OHIO

CITY           SKY/WX    TMP DP  RH WIND       PRES   REMARKS
DEFIANCE       MOSUNNY   75  62  64 CALM      30.12S
FINDLAY        MOSUNNY   75  60  59 CALM      30.12S
TOLEDO EXPRESS MOSUNNY   75  59  57 NE3       30.13S
TOLEDO EXEC    MOSUNNY   74  57  55 CALM      30.14S
LIMA           MOSUNNY   74  59  59 CALM      30.13R
$$

OHZ009>014-019>023-028>033-038-089-051600-
   NORTHEAST OHIO

CITY           SKY/WX    TMP DP  RH WIND       PRES   REMARKS
CLE-HOPKINS    PTSUNNY   74  50  42 CALM      30.16S
CLE-LAKEFRONT  PTSUNNY   74  53  48 SE7       30.13F
CUY CO. ARPT   MOSUNNY   73  54  49 S8        30.16S
LORAIN-ELYRIA  MOSUNNY   71  54  54 S6        30.14F
ASHTABULA      SUNNY     72  56  57 CALM      30.17S
AKRON-CANTON   PTSUNNY   73  53  49 CALM      30.15S
WOOSTER        MOSUNNY   72  59  63 VRB3      30.15F
MANSFIELD      MOSUNNY   72  56  57 S3        30.15R
YOUNGSTOWN     PTSUNNY   69  54  58 E6        30.17S
$$

OHZ042-051>053-060>062-070>072-077>081-051600-
  SOUTHWEST OHIO

CITY           SKY/WX    TMP DP  RH WIND       PRES   REMARKS
CINC-COVINGTON CLOUDY    75  60  59 E7        30.11R
CINC-LUNKEN    CLOUDY    73  63  70 NE6       30.11R
HAMILTON       CLOUDY    75  61  61 E3        30.12R
DAYTON         CLOUDY    76  61  59 VRB5      30.13R
WRIGHT-PAT AFB PTSUNNY   72  62  70 NE2       30.12R
DAYTON GENERAL CLOUDY    73  61  65 E3        30.11S
WILMINGTON     CLOUDY    72  61  68 VRB5      30.12R
$$

OHZ036-037-039>041-045>050-054>059-063>069-073>076-082>088-051600-
  CENTRAL AND SOUTHEAST OHIO

CITY           SKY/WX    TMP DP  RH WIND       PRES   REMARKS
COLUMBUS       CLOUDY    75  60  59 E6        30.11S
OSU AIRPORT    PTSUNNY   75  59  57 E5        30.12S
BOLTON FIELD   SUNNY     73  63  68 CALM      30.13R
RICKENBACK AFB PTSUNNY   69  61  74 CALM      30.11S
NEWARK         MOSUNNY   71  58  63 VRB3      30.12S
MARION         MOSUNNY   72  58  61 S3        30.13S
LANCASTER      PTSUNNY   73  62  68 CALM      30.12S
ZANESVILLE     NOT AVBL
NEW PHILLY     MOSUNNY   73  60  63 CALM      30.14F
$$



USA.gov is the U.S. government's official web portal to all federal, state and local government web resources and services.